GLOBALSTAR M063 [+]

Last updated on July 6, 2021, 3:36 p.m. UTC

1 26081U 00008A   21186.83763215 -.00000083  00000-0 -50324-5 0  9990
2 26081  51.9966 310.0240 0005189  80.5580  93.5857 11.86127319986418
UTC
Height (km)
Latitude
Longitude
Inclination
Orbital Period
UTC large
Height (km)
Speed (km/s)
/
Latitude / Longitude
Inclination (degrees)
Orbital Period (minutes)
Azimuth
Elevation
Range (km)
Doppler Factor
iOS Compass Heading
iOS Angle